Regional Weather Roundup
Issued by NWS Sterling, VA

Home | Current Version | Previous Version | Graphics & Text | Print | Product List | Glossary On
Versions: 1 2 3 4 5 6 7 8 9 10 11 12 13 14 15 16 17 18 19 20 21 22 23 24 25 26 27
000
ASUS41 KLWX 170810
RWRLWX

REGIONAL WEATHER ROUNDUP
NATIONAL WEATHER SERVICE BALTIMORE MD/WASHINGTON DC
300 AM EST TUE JAN 17 2017

Note: "FAIR" indicates few or no clouds below 12,000 feet
with no significant weather and/or obstructions to visibility.
 TC=TEMPERATURE CELSIUS

 * =Non NWS site. Station does not report precipitation (e.g. rain,
    snow, etc.), thunder, or fog.

DCZ001-MDZ009-015-VAZ040>042-051-053>054-170900-
WASHINGTON METRO

CITY           SKY/WX    TMP DP  RH WIND       PRES   REMARKS
WASHINGTON NAT CLOUDY    41  39  93 SE3       30.26S
DULLES         CLOUDY    40  37  89 CALM      30.24S
ANDREWS AFB    CLOUDY    39  37  93 S5        30.23F
FT BELVOIR     CLOUDY    39  38  95 CALM      30.24F
QUANTICO       PTCLDY    40  39  97 CALM      30.26F
LEESBURG*      CLOUDY    43  43 100 MISG      30.24S
GAITHERSBURG*  CLOUDY    39  34  81 S3        30.27F

$$

MDZ006>007-011-014-170900-
BALTIMORE METRO

CITY           SKY/WX    TMP DP  RH WIND       PRES   REMARKS
BWI AIRPORT    CLOUDY    38  37  97 S3        30.25F
MD SCIENCE CTR   N/A     41  33  73 MISG      30.26S
ANNAPOLIS      LGT RAIN  41  37  86 CALM      30.26S
FORT MEADE*    CLOUDY    36  36 100 CALM      30.27F

$$

MDZ012-015-019>023-170900-
MARYLAND EASTERN SHORE

CITY           SKY/WX    TMP DP  RH WIND       PRES   REMARKS
OCEAN CITY     CLOUDY    41  38  89 CALM      30.27F
SALISBURY      CLOUDY    40  36  86 S3        30.27F
BAY BRIDGE AP* LGT RAIN  39  37  93 S3        30.26F
CAMBRIDGE*     CLOUDY    39  34  81 S3        30.26F
EASTON*        CLOUDY    41  37  86 CALM      30.31R

$$

MDZ017>025-170900-
SOUTHERN MARYLAND

CITY           SKY/WX    TMP DP  RH WIND       PRES   REMARKS
PATUXENT RIVER CLOUDY    41  36  82 S6        30.27S
ST INIGOES     NOT AVBL
LEONARDTOWN*   CLOUDY    41  34  75 CALM      30.26F

$$

MDZ003>005-170900-
NORTH CENTRAL MARYLAND

CITY           SKY/WX    TMP DP  RH WIND       PRES   REMARKS
FREDERICK*     CLOUDY    36  36 100 CALM      30.26F
HAGERSTOWN APT CLOUDY    35  31  85 NW5       30.21F FOG
WESTMINSTER*   CLOUDY    37  34  87 S3        30.22F

$$

MDZ501>502-170900-
WESTERN MARYLAND

CITY           SKY/WX    TMP DP  RH WIND       PRES   REMARKS
OAKLAND*         N/A     46  46 100 SW7       30.15R
CUMBERLAND*    CLOUDY    36  34  93 CALM      30.24F

$$

VAZ025>031-170900-
SHENANDOAH VALLEY

CITY           SKY/WX    TMP DP  RH WIND       PRES   REMARKS
WINCHESTER*    CLOUDY    36  34  93 CALM      30.20F
FRONT ROYAL*   CLOUDY    39  37  93 CALM      30.19S
LURAY*         PTSUNNY   45  43  93 CALM      30.19F
NEW MARKET*    CLOUDY    42  40  90 CALM      30.19F
STAUNTON*      CLOUDY    41  39  95 CALM      30.22S
WAYNESBORO*    CLOUDY    40  39  96 CALM      30.20S

$$

WVZ021-048>050-054>055-170900-
EASTERN WEST VIRGINIA PANHANDLE

CITY           SKY/WX    TMP DP  RH WIND       PRES   REMARKS
MARTINSBURG    CLOUDY    37  33  85 N3        30.21F FOG
PETERSBURG*    CLOUDY    39  37  91 CALM      30.22R

$$

VAZ036>039-050-170900-
CENTRAL FOOTHILLS

CITY           SKY/WX    TMP DP  RH WIND       PRES   REMARKS
CHARLOTTESVILL CLOUDY    42  40  92 CALM      30.22S
CULPEPER*      CLOUDY    42  41  97 S5        30.24F
ORANGE*          N/A     41  41 100 CALM      30.25S
GORDONSVILLE*  CLOUDY    40  40 100 SW5       30.23S
WARRENTON*     CLOUDY    42  38  88 CALM      30.22F

$$

VAZ055>057-170900-
NORTH AND CENTRAL PIEDMONT

CITY           SKY/WX    TMP DP  RH WIND       PRES   REMARKS
FREDERICKSBRG* PTCLDY    40  40 100 CALM      30.24F
STAFFORD*      PTCLDY    39  38  97 CALM      30.29F

$$

NCZ024-NYZ072-PAZ021-071-VAZ022-071-170900-
OTHER REGIONAL OBSERVATIONS

CITY           SKY/WX    TMP DP  RH WIND       PRES   REMARKS
NEW YORK CITY  CLOUDY    40  26  57 VRB5      30.28S
PHILADELPHIA   CLOUDY    38  30  73 CALM      30.29S
PITTSBURGH     LGT RAIN  39  38  96 CALM      30.10R FOG
ROANOKE        FOG       41  41 100 CALM      30.24F VSB 1/4
RICHMOND       CLOUDY    41  41 100 S5        30.27R FOG
RALEIGH        CLOUDY    48  43  82 W3        30.27S

$$

ANZ530>537-170900-
MARINE OBSERVATIONS

STATION/POSITION TIME  TEMP    WIND        PRES
                       AIR SEA DIR/SP/G
                 (UTC) (F)     (DEG/KT/KT) (MB)
THOMAS PT LIGHT  0800   40 38  180/  7/  7   N/A
BALT KEY BRIDGE  0742   39     180/  5/  6 1024.8F
COVE POINT       0742   40     200/  7/  8 1025.6S
LEWISETTA        0742   43 42  190/  4/  5 1024.7F
SOLOMONS ISLAND  0748      41  190/  6/  6   N/A
PINEY POINT      0748          130/  4/  4   N/A

$$





USA.gov is the U.S. government's official web portal to all federal, state and local government web resources and services.